Regional Weather Roundup
Issued by NWS

Home | Current Version | Previous Version | Text Only | Print | Product List | Glossary Off
Versions: 1 2 3 4 5 6 7 8 9 10 11 12 13 14 15 16 17 18 19 20 21 22 23 24 25 26 27 28 29 30 31 32 33 34 35 36 37 38 39 40 41 42 43 44 45 46 47 48 49 50

000
ASUS45 KABQ 210801
RWRNM
WEATHER ROUNDUP FOR NEW MEXICO
NATIONAL WEATHER SERVICE ALBUQUERQUE NM
200 AM MDT SUN SEP 21 2014

NOTE: "FAIR" MEANS FEW OR NO CLOUDS BELOW 12,000 FEET AGL WITH NO
       SIGNIFICANT WEATHER OR OBSTRUCTIONS TO VISION.

      THIS PRODUCT IS RELEASED AS TWO VERSIONS.  ONE VERSION NEAR
      THE TOP OF THE HOUR CONTAINING PRELIMINARY DATA FROM ALBUQUERQUE
      AND OTHER STATIONS.  A FINAL VERSION WITH ADDITIONAL DATA IS
      ISSUED ABOUT 10 MINUTES AFTER THE HOUR.

NMZ501-503-504-510>518-210900-
NORTHWEST PLATEAU/NORTHCENTRAL MOUNTAINS

CITY           SKY/WX    TMP DP  RH WIND       PRES   REMARKS
FARMINGTON     CLOUDY    74  45  35 E6        30.19R
LOS ALAMOS     CLEAR     62  51  66 S9        30.37S
SANTA FE       CLEAR     64  51  62 SE13      30.31S
TAOS           PTCLDY    64  46  52 SE15G24   30.37R
ANGEL FIRE     FAIR      45  40  85 CALM      30.49S

$$
NMZ402-403-502-505>509-210900-
WESTCENTRAL MOUNTAINS/SOUTHWEST MOUNTAINS

CITY           SKY/WX    TMP DP  RH WIND       PRES   REMARKS
GALLUP         CLEAR     61  45  55 SE6       30.28R
GRANTS         CLEAR     57  48  72 S7        30.31S
SILVER CITY    CLEAR     66  63  88 E10       30.21S

$$
NMZ407-409-411-412-210900-
SOUTHERN DESERTS

CITY           SKY/WX    TMP DP  RH WIND       PRES   REMARKS
LORDSBURG      FAIR      68  63  83 MISG      30.10S
DEMING         PTCLDY    72  64  76 E13       30.11R
LAS CRUCES     MOCLDY    71  62  72 SE6       30.14R
HOLLOMAN AFB   PTCLDY    68  63  84 W3        30.11R
ALAMOGORDO     PTCLDY    66  61  82 CALM      30.13S
T OR C         HVY RAIN  67  63  87 NE5       30.17R FOG

$$
NMZ519>523-210900-
CENTRAL VALLEYS/CENTRAL HIGHLANDS

CITY           SKY/WX    TMP DP  RH WIND       PRES   REMARKS
ALBUQUERQUE    MOCLDY    70  56  61 SE7       30.24S
DOUBLE EAGLE   PTCLDY    66  55  66 SE13      30.27S
CLINES CORNERS CLOUDY    60  57  89 E10       30.35F
BELEN          FAIR      69  57  66 S10       30.22S
SOCORRO        FAIR      71  59  66 CALM      30.20S

$$
NMZ524>526-539-540-210900-
SOUTHCENTRAL MOUNTAINS

CITY           SKY/WX    TMP DP  RH WIND       PRES   REMARKS
RUIDOSO        NOT AVBL

$$
NMZ527>531-210900-
NORTHEAST HIGHLANDS/NORTHEAST PLAINS

CITY           SKY/WX    TMP DP  RH WIND       PRES   REMARKS
LAS VEGAS      CLEAR     53  48  83 N8        30.38F
RATON          PTCLDY    59  51  75 E8        30.36S
CLAYTON        CLOUDY    64  59  83 N6        30.28S

$$
NMZ532>537-210900-
EASTCENTRAL PLAINS

CITY           SKY/WX    TMP DP  RH WIND       PRES   REMARKS
TUCUMCARI      CLEAR     65  60  84 CALM      30.20S
CANNON AFB     PTCLDY    66 N/A N/A E8        30.22R HAZE
CLOVIS AIRPORT   N/A     64  64 100 SE5       30.23S VSB 1/2

$$
NMZ028-029-538-210900-
SOUTHEAST PLAINS

CITY           SKY/WX    TMP DP  RH WIND       PRES   REMARKS
ROSWELL        CLOUDY    71  68  90 N5        30.13S
CARLSBAD       CLOUDY    72  32  23 E7        30.09S
HOBBS          CLOUDY    68  68 100 E9        30.14S FOG


$$



USA.gov is the U.S. government's official web portal to all federal, state and local government web resources and services.